Auburn-Lewiston, ME

1:55 PM EDT on April 19, 2018 (GMT -0400)
Auburn-Lewiston Municipal

Weather History for KLEW - March, 2014

Change the Weather History Date:

Saturday, March 1, 2014

  Actual Average Record
Temperature  
Mean Temperature 12 °F -  
Max Temperature 28 °F 33 °F 50 °F (2004)
Min Temperature -4 °F 17 °F -7 °F (2015)
Degree Days  
Heating Degree Days 53    
Moisture  
Dew Point 0 °F    
Average Humidity 55    
Maximum Humidity 85    
Minimum Humidity 31    
Precipitation  
Precipitation 0.00 in - - ()
Sea Level Pressure  
Sea Level Pressure 30.26 in    
Wind  
Wind Speed 3 mph (South)    
Max Wind Speed 16 mph    
Max Gust Speed 22 mph    
Visibility 10 miles    
Events      
Averages and records for this station are not official NWS values.
T = Trace of Precipitation, MM = Missing Value Source: NWS Daily Summary

Daily Weather History Graph

Daily Weather History Graph

Search for Another Location

Airport or City:

Astronomy

Mar. 01, 2014 Rise Set
Actual Time 6:18 AM EST 5:29 PM EST
Civil Twilight 5:49 AM EST 5:58 PM EST
Nautical Twilight 5:15 AM EST 6:31 PM EST
Astronomical Twilight 4:42 AM EST 7:05 PM EST
Moon 6:08 AM EST (3/1) 6:16 PM EST (3/1)
Length of Visible Light 12h 09m
Length of Day
11h 11m
New Moon, 0% of the Moon is Illuminated
Mar 1
New Moon
Mar 8
First Quarter
Mar 16
Full
Mar 23
Last Quarter
Mar 30
New

Hourly Weather History & Observations

Time (EST) Temp. Windchill Dew Point Humidity Pressure Visibility Wind Dir Wind Speed Gust Speed Precip Events Conditions
12:15 AM 1.4 °F - -5.8 °F 72% 30.40 in 10.0 mi Calm Calm - N/A   Clear
12:35 AM 1.4 °F - -5.8 °F 72% 30.41 in 10.0 mi Calm Calm - N/A   Clear
12:55 AM 1.4 °F - -2.2 °F 85% 30.41 in 10.0 mi Calm Calm - N/A   Clear
1:15 AM -2.2 °F - -13.0 °F 60% 30.41 in 10.0 mi Calm Calm - N/A   Clear
1:35 AM -0.4 °F - -4.0 °F 85% 30.41 in 10.0 mi Calm Calm - N/A   Clear
1:55 AM -2.2 °F - -7.6 °F 78% 30.41 in 10.0 mi Calm Calm - N/A   Clear
2:15 AM -2.2 °F - -7.6 °F 78% 30.41 in 10.0 mi Calm Calm - N/A   Clear
2:35 AM -2.2 °F - -5.8 °F 85% 30.41 in 10.0 mi Calm Calm - N/A   Clear
2:55 AM -2.2 °F - -7.6 °F 78% 30.41 in 10.0 mi Calm Calm - N/A   Clear
3:15 AM -2.2 °F - -7.6 °F 78% 30.40 in 10.0 mi Calm Calm - N/A   Clear
3:35 AM -2.2 °F - -7.6 °F 78% 30.40 in 10.0 mi Calm Calm - N/A   Clear
3:55 AM -2.2 °F - -9.4 °F 71% 30.40 in 10.0 mi Calm Calm - N/A   Clear
4:15 AM -2.2 °F - -9.4 °F 71% 30.40 in 10.0 mi Calm Calm - N/A   Clear
4:55 AM -4.0 °F - -11.2 °F 71% 30.39 in 10.0 mi Calm Calm - N/A   Clear
5:15 AM -4.0 °F - -7.6 °F 85% 30.39 in 10.0 mi Calm Calm - N/A   Clear
5:35 AM -4.0 °F - -9.4 °F 78% 30.39 in 10.0 mi Calm Calm - N/A   Clear
5:55 AM -4.0 °F - -9.4 °F 78% 30.39 in 10.0 mi Calm Calm - N/A   Clear
6:15 AM -4.0 °F - -9.4 °F 78% 30.38 in 10.0 mi Calm Calm - N/A   Clear
6:35 AM -4.0 °F -12.4 °F -9.4 °F 78% 30.38 in 10.0 mi NNW 3.5 mph - N/A   Clear
6:55 AM -4.0 °F - -11.2 °F 71% 30.39 in 10.0 mi Calm Calm - N/A   Clear
7:15 AM -4.0 °F - -7.6 °F 85% 30.39 in 10.0 mi Calm Calm - N/A   Clear
7:35 AM -2.2 °F - -9.4 °F 71% 30.39 in 10.0 mi Calm Calm - N/A   Clear
7:55 AM -0.4 °F - -7.6 °F 72% 30.39 in 10.0 mi Calm Calm - N/A   Clear
8:15 AM 1.4 °F -6.2 °F -5.8 °F 72% 30.39 in 10.0 mi NNE 3.5 mph - N/A   Partly Cloudy
8:35 AM 3.2 °F -4.2 °F -7.6 °F 61% 30.39 in 10.0 mi NNE 3.5 mph - N/A   Scattered Clouds
8:55 AM 6.8 °F -0.1 °F -5.8 °F 56% 30.38 in 10.0 mi NE 3.5 mph - N/A   Partly Cloudy
9:15 AM 8.6 °F 2.0 °F -5.8 °F 52% 30.38 in 10.0 mi NNE 3.5 mph - N/A   Mostly Cloudy
9:35 AM 10.4 °F 2.2 °F -5.8 °F 48% 30.38 in 10.0 mi North 4.6 mph - N/A   Mostly Cloudy
9:55 AM 12.2 °F - -4.0 °F 48% 30.37 in 10.0 mi Calm Calm - N/A   Clear
10:15 AM 14.0 °F - -2.2 °F 49% 30.36 in 10.0 mi Calm Calm - N/A   Mostly Cloudy
10:35 AM 15.8 °F - -0.4 °F 49% 30.35 in 10.0 mi Calm Calm - N/A   Mostly Cloudy
10:55 AM 15.8 °F - -0.4 °F 49% 30.34 in 10.0 mi Calm Calm - N/A   Partly Cloudy
11:15 AM 17.6 °F - 1.4 °F 49% 30.34 in 10.0 mi Calm Calm - N/A   Partly Cloudy
11:35 AM 19.4 °F - 1.4 °F 46% 30.32 in 10.0 mi Calm Calm - N/A   Clear
11:55 AM 21.2 °F - 3.2 °F 46% 30.31 in 10.0 mi Calm Calm - N/A   Clear
12:15 PM 24.8 °F 14.0 °F 19.4 °F 80% 30.29 in 10.0 mi SW 11.5 mph 17.3 mph N/A   Clear
12:35 PM 24.8 °F 14.6 °F -2.2 °F 31% 30.27 in 10.0 mi South 10.4 mph 16.1 mph N/A   Clear
12:55 PM 26.6 °F 16.8 °F 1.4 °F 34% 30.25 in 10.0 mi South 10.4 mph - N/A   Clear
1:15 PM 26.6 °F 15.2 °F -0.4 °F 31% 30.24 in 10.0 mi South 13.8 mph 17.3 mph N/A   Clear
1:35 PM 26.6 °F 14.3 °F -0.4 °F 31% 30.22 in 10.0 mi SSW 16.1 mph 20.7 mph N/A   Clear
1:55 PM 26.6 °F 14.7 °F 1.4 °F 34% 30.20 in 10.0 mi South 15.0 mph 19.6 mph N/A   Clear
2:15 PM 28.4 °F 18.0 °F 1.4 °F 31% 30.19 in 10.0 mi South 12.7 mph 20.7 mph N/A   Clear
2:35 PM 28.4 °F 18.0 °F 1.4 °F 31% 30.17 in 10.0 mi South 12.7 mph 21.9 mph N/A   Partly Cloudy
2:55 PM 26.6 °F 16.2 °F 1.4 °F 34% 30.17 in 10.0 mi South 11.5 mph 18.4 mph N/A   Mostly Cloudy
3:15 PM 26.6 °F 15.7 °F 1.4 °F 34% 30.17 in 10.0 mi South 12.7 mph - N/A   Mostly Cloudy
3:35 PM 26.6 °F 15.2 °F 1.4 °F 34% 30.17 in 10.0 mi SSW 13.8 mph 21.9 mph N/A   Partly Cloudy
3:55 PM 26.6 °F 16.2 °F 1.4 °F 34% 30.16 in 10.0 mi South 11.5 mph - N/A   Clear
4:15 PM 26.6 °F 15.7 °F 3.2 °F 37% 30.15 in 10.0 mi South 12.7 mph 20.7 mph N/A   Partly Cloudy
4:35 PM 28.4 °F 18.0 °F 1.4 °F 31% 30.14 in 10.0 mi SSW 12.7 mph 19.6 mph N/A   Partly Cloudy
4:55 PM 28.4 °F 19.1 °F 3.2 °F 34% 30.15 in 10.0 mi SSW 10.4 mph - N/A   Mostly Cloudy
5:15 PM 26.6 °F 18.2 °F 3.2 °F 37% 30.14 in 10.0 mi SSW 8.1 mph - N/A   Overcast
5:35 PM 26.6 °F 18.2 °F 5.0 °F 40% 30.13 in 10.0 mi South 8.1 mph - N/A   Overcast
5:55 PM 26.6 °F 22.6 °F 5.0 °F 40% 30.13 in 10.0 mi South 3.5 mph - N/A   Overcast
6:15 PM 26.6 °F 21.2 °F 5.0 °F 40% 30.12 in 10.0 mi SSW 4.6 mph - N/A   Overcast
6:35 PM 26.6 °F 19.1 °F 5.0 °F 40% 30.12 in 10.0 mi South 6.9 mph - N/A   Overcast
6:55 PM 26.6 °F 21.2 °F 6.8 °F 43% 30.12 in 10.0 mi South 4.6 mph - N/A   Overcast
7:15 PM 26.6 °F 20.0 °F 6.8 °F 43% 30.12 in 10.0 mi SSW 5.8 mph - N/A   Overcast
7:35 PM 26.6 °F 21.2 °F 8.6 °F 47% 30.11 in 10.0 mi South 4.6 mph - N/A   Overcast
7:55 PM 26.6 °F 19.1 °F 6.8 °F 43% 30.09 in 10.0 mi South 6.9 mph - N/A   Overcast
8:15 PM 26.6 °F 19.1 °F 8.6 °F 47% 30.08 in 10.0 mi SSW 6.9 mph - N/A   Overcast
8:35 PM 26.6 °F 20.0 °F 8.6 °F 47% 30.08 in 10.0 mi South 5.8 mph - N/A   Overcast
8:55 PM 26.6 °F - 8.6 °F 47% 30.09 in 10.0 mi Calm Calm - N/A   Overcast
9:15 PM 26.6 °F 20.0 °F 10.4 °F 51% 30.08 in 10.0 mi South 5.8 mph - N/A   Overcast
9:35 PM 28.4 °F 21.2 °F 10.4 °F 47% 30.07 in 10.0 mi South 6.9 mph - N/A   Overcast
9:55 PM 28.4 °F 23.3 °F 10.4 °F 47% 30.07 in 10.0 mi South 4.6 mph - N/A   Overcast
10:15 PM 28.4 °F 23.3 °F 10.4 °F 47% 30.06 in 10.0 mi South 4.6 mph - N/A   Overcast
10:35 PM 28.4 °F 21.2 °F 10.4 °F 47% 30.04 in 10.0 mi South 6.9 mph - N/A   Overcast
10:55 PM 28.4 °F 21.2 °F 10.4 °F 47% 30.03 in 10.0 mi South 6.9 mph - N/A   Overcast
11:15 PM 28.4 °F 21.2 °F 10.4 °F 47% 30.02 in 10.0 mi South 6.9 mph - N/A   Overcast
11:35 PM 28.4 °F 23.3 °F 12.2 °F 51% 30.02 in 10.0 mi South 4.6 mph - N/A   Overcast
11:55 PM 28.4 °F 20.4 °F 12.2 °F 51% 30.01 in 10.0 mi South 8.1 mph - N/A   Overcast